| time (UTC) | temp C | wind direction | speed KPH | gust KPH | rain 1hr cm | rain 24hr cm | rain mn cm | humidity % | barometer mb |
| 20260905123012 | 12 | 174 | 0.0 | 0.0 | 0.00 | 0.20 | 0.00 | 79 | 1017.1 |
| 20260905121531 | 12 | 174 | 0.0 | 0.0 | 0.00 | 0.20 | 0.00 | 79 | 1017.0 |
| 20260905120030 | 12 | 174 | 0.0 | 0.0 | 0.00 | 0.20 | 0.00 | 79 | 1016.9 |
| 20260905114539 | 12 | 174 | 0.0 | 0.0 | 0.00 | 0.20 | 0.00 | 79 | 1017.2 |
| 20260905113035 | 12 | 174 | 0.0 | 0.0 | 0.00 | 0.20 | 0.00 | 79 | 1017.0 |
| 20260905111526 | 12 | 174 | 0.0 | 0.0 | 0.00 | 0.20 | 0.00 | 79 | 1016.8 |
| 20260905110019 | 12 | 174 | 0.0 | 0.0 | 0.00 | 0.20 | 0.00 | 79 | 1017.0 |
| 20260905104521 | 12 | 174 | 0.0 | 0.0 | 0.00 | 0.20 | 0.00 | 79 | 1017.0 |
| 20260905103034 | 12 | 174 | 0.0 | 0.0 | 0.00 | 0.23 | 0.00 | 79 | 1017.0 |
| 20260905101541 | 12 | 174 | 0.0 | 0.0 | 0.00 | 0.25 | 0.00 | 78 | 1017.0 |
| 20260905100031 | 12 | 174 | 0.0 | 0.0 | 0.00 | 0.28 | 0.00 | 78 | 1016.8 |
| 20260905094530 | 12 | 174 | 0.0 | 0.0 | 0.00 | 0.28 | 0.00 | 77 | 1016.9 |
| 20260905093033 | 12 | 174 | 0.0 | 0.0 | 0.00 | 0.28 | 0.00 | 76 | 1016.9 |
| 20260905091526 | 12 | 174 | 0.0 | 0.0 | 0.00 | 0.30 | 0.00 | 76 | 1016.8 |
| 20260905090020 | 12 | 174 | 0.0 | 0.0 | 0.00 | 0.33 | 0.00 | 76 | 1016.8 |
| 20260905084536 | 12 | 174 | 0.0 | 0.0 | 0.00 | 0.38 | 0.00 | 75 | 1016.8 |
| 20260905083003 | 12 | 174 | 0.0 | 0.0 | 0.00 | 0.46 | 0.00 | 75 | 1016.7 |
| 20260905081502 | 12 | 174 | 0.0 | 0.0 | 0.00 | 0.48 | 0.00 | 75 | 1016.6 |
| 20260905080008 | 13 | 174 | 0.0 | 0.0 | 0.00 | 0.48 | 0.00 | 75 | 1016.6 |
| 20260905074506 | 13 | 176 | 0.0 | 0.0 | 0.00 | 0.48 | 0.00 | 75 | 1016.4 |
| 20260905073004 | 13 | 176 | 0.0 | 0.0 | 0.00 | 0.48 | 0.00 | 75 | 1016.4 |
| 20260905071508 | 13 | 176 | 0.0 | 0.0 | 0.00 | 0.48 | 0.00 | 75 | 1016.4 |
| 20260905070003 | 13 | 151 | 0.0 | 0.0 | 0.00 | 0.48 | 0.00 | 75 | 1016.4 |
| 20260905064503 | 13 | 151 | 0.0 | 0.0 | 0.00 | 0.51 | 0.48 | 75 | 1016.4 |
| 20260905063004 | 13 | 151 | 0.0 | 0.0 | 0.00 | 0.51 | 0.48 | 75 | 1016.3 |
| 20260905061512 | 13 | 151 | 0.0 | 0.0 | 0.00 | 0.51 | 0.48 | 74 | 1016.3 |
| 20260905060018 | 13 | 151 | 0.0 | 0.0 | 0.00 | 0.51 | 0.48 | 75 | 1016.3 |
| 20260905054508 | 12 | 151 | 0.0 | 0.0 | 0.00 | 0.51 | 0.48 | 75 | 1016.2 |
| 20260905053015 | 12 | 152 | 0.0 | 0.0 | 0.00 | 0.51 | 0.48 | 75 | 1016.1 |
| 20260905051504 | 12 | 152 | 0.0 | 0.0 | 0.00 | 0.51 | 0.48 | 75 | 1016.0 |
| 20260905050003 | 12 | 151 | 0.0 | 0.0 | 0.00 | 0.51 | 0.48 | 75 | 1016.1 |
| 20260905044503 | 12 | 152 | 0.0 | 0.0 | 0.00 | 0.51 | 0.48 | 74 | 1016.0 |
| 20260905043018 | 12 | 152 | 0.0 | 0.0 | 0.00 | 0.51 | 0.48 | 74 | 1015.9 |
| 20260905041514 | 13 | 152 | 0.0 | 0.0 | 0.00 | 0.51 | 0.48 | 74 | 1015.8 |
| 20260905040018 | 13 | 152 | 0.0 | 0.0 | 0.00 | 0.51 | 0.48 | 73 | 1015.6 |
| 20260905034506 | 13 | 151 | 0.0 | 0.0 | 0.00 | 0.51 | 0.48 | 72 | 1015.4 |
| 20260905033004 | 14 | 152 | 0.0 | 0.0 | 0.00 | 0.53 | 0.48 | 72 | 1015.3 |
| 20260905031505 | 14 | 160 | 0.0 | 0.0 | 0.00 | 0.56 | 0.48 | 72 | 1015.2 |
| 20260905030004 | 15 | 136 | 0.0 | 0.0 | 0.00 | 0.58 | 0.48 | 71 | 1015.1 |
| 20260905024531 | 15 | 134 | 0.0 | 3.2 | 0.00 | 0.61 | 0.48 | 70 | 1015.0 |
| 20260905023020 | 15 | 120 | 0.0 | 12.9 | 0.00 | 0.61 | 0.48 | 69 | 1015.0 |
| 20260905021515 | 15 | 129 | 0.0 | 8.0 | 0.00 | 0.64 | 0.48 | 67 | 1015.1 |
| 20260905020020 | 15 | 291 | 0.0 | 3.2 | 0.00 | 0.64 | 0.48 | 69 | 1015.1 |
| 20260905014507 | 16 | 97 | 0.0 | 6.4 | 0.00 | 0.66 | 0.48 | 68 | 1015.0 |
| 20260905013008 | 16 | 92 | 0.0 | 6.4 | 0.00 | 0.66 | 0.48 | 68 | 1014.7 |
| 20260905011532 | 17 | 62 | 0.0 | 1.6 | 0.00 | 0.69 | 0.48 | 69 | 1014.7 |
| 20260905010026 | 17 | 114 | 0.0 | 1.6 | 0.00 | 0.69 | 0.48 | 68 | 1014.7 |
| 20260905004523 | 17 | 63 | 0.0 | 1.6 | 0.00 | 0.69 | 0.48 | 67 | 1014.5 |
| 20260905003017 | 17 | 66 | 0.0 | 1.6 | 0.00 | 0.69 | 0.48 | 70 | 1014.3 |
| 20260905001514 | 17 | 11 | 0.0 | 0.0 | 0.00 | 0.69 | 0.48 | 69 | 1014.2 |
| 20260905000013 | 17 | 305 | 0.0 | 0.0 | 0.00 | 0.69 | 0.48 | 67 | 1014.2 |
| 20260904234510 | 17 | 92 | 0.0 | 3.2 | 0.00 | 0.69 | 0.48 | 67 | 1014.2 |
| 20260904233036 | 18 | 139 | 0.0 | 1.6 | 0.00 | 0.69 | 0.48 | 66 | 1014.0 |
| 20260904231534 | 17 | 127 | 0.0 | 1.6 | 0.00 | 0.69 | 0.48 | 69 | 1014.0 |
| 20260904230028 | 16 | 128 | 0.0 | 4.8 | 0.03 | 0.74 | 0.48 | 67 | 1014.0 |
| 20260904224528 | 16 | 121 | 0.0 | 0.0 | 0.03 | 0.79 | 0.48 | 72 | 1013.9 |
| 20260904223025 | 15 | 121 | 0.0 | 1.6 | 0.08 | 0.79 | 0.48 | 72 | 1013.9 |
| 20260904221518 | 15 | 122 | 0.0 | 0.0 | 0.15 | 0.79 | 0.48 | 74 | 1014.1 |
| 20260904220023 | 15 | 122 | 0.0 | 1.6 | 0.13 | 0.76 | 0.46 | 72 | 1014.0 |
| 20260904214533 | 15 | 213 | 0.0 | 0.0 | 0.13 | 0.81 | 0.46 | 73 | 1014.0 |
| 20260904213022 | 15 | 217 | 0.0 | 3.2 | 0.08 | 0.89 | 0.41 | 72 | 1013.9 |
| 20260904211507 | 17 | 228 | 0.0 | 6.4 | 0.00 | 0.91 | 0.33 | 65 | 1013.9 |
| 20260904210013 | 18 | 118 | 0.0 | 12.9 | 0.00 | 0.91 | 0.33 | 59 | 1013.5 |
| 20260904204503 | 18 | 126 | 0.0 | 3.2 | 0.00 | 0.94 | 0.33 | 60 | 1013.2 |
| 20260904203023 | 18 | 124 | 0.0 | 4.8 | 0.00 | 0.94 | 0.33 | 64 | 1013.2 |
| 20260904201520 | 17 | 122 | 0.0 | 6.4 | 0.00 | 0.99 | 0.33 | 68 | 1013.3 |
| 20260904200018 | 17 | 19 | 0.0 | 0.0 | 0.03 | 0.99 | 0.33 | 67 | 1013.3 |
| 20260904194512 | 16 | 132 | 0.0 | 3.2 | 0.03 | 1.02 | 0.33 | 69 | 1013.3 |
| 20260904193009 | 16 | 124 | 0.0 | 0.0 | 0.03 | 1.02 | 0.33 | 73 | 1013.5 |
| 20260904191508 | 15 | 123 | 0.0 | 3.2 | 0.03 | 1.02 | 0.33 | 69 | 1013.6 |
| 20260904190005 | 16 | 132 | 0.0 | 0.0 | 0.00 | 0.99 | 0.30 | 70 | 1013.7 |
| 20260904184530 | 16 | 133 | 0.0 | 1.6 | 0.00 | 0.99 | 0.30 | 72 | 1013.5 |
| 20260904183029 | 16 | 101 | 0.0 | 1.6 | 0.00 | 0.99 | 0.30 | 70 | 1013.4 |
| 20260904181525 | 16 | 332 | 0.0 | 0.0 | 0.00 | 0.99 | 0.30 | 70 | 1013.3 |
| 20260904180020 | 15 | 332 | 0.0 | 0.0 | 0.00 | 0.99 | 0.30 | 73 | 1013.2 |
| 20260904174514 | 15 | 333 | 0.0 | 1.6 | 0.00 | 0.99 | 0.30 | 75 | 1013.2 |
| 20260904173014 | 15 | 296 | 0.0 | 1.6 | 0.00 | 0.99 | 0.30 | 74 | 1013.1 |
| 20260904171512 | 14 | 303 | 0.0 | 0.0 | 0.00 | 1.09 | 0.30 | 76 | 1012.9 |
| 20260904170032 | 14 | 347 | 0.0 | 0.0 | 0.00 | 1.27 | 0.30 | 75 | 1012.9 |
| 20260904164532 | 13 | 284 | 0.0 | 0.0 | 0.00 | 1.32 | 0.30 | 78 | 1012.8 |
| 20260904163031 | 13 | 284 | 0.0 | 0.0 | 0.00 | 1.32 | 0.30 | 80 | 1012.8 |
| 20260904161533 | 13 | 284 | 0.0 | 0.0 | 0.00 | 1.32 | 0.30 | 80 | 1012.8 |
| 20260904160024 | 13 | 283 | 0.0 | 0.0 | 0.03 | 1.32 | 0.30 | 80 | 1012.7 |
| 20260904154518 | 13 | 283 | 0.0 | 0.0 | 0.03 | 1.32 | 0.30 | 81 | 1012.6 |
| 20260904153021 | 12 | 284 | 0.0 | 0.0 | 0.03 | 1.32 | 0.30 | 81 | 1012.6 |
| 20260904151507 | 12 | 297 | 0.0 | 0.0 | 0.03 | 1.32 | 0.30 | 81 | 1012.5 |
| 20260904150016 | 12 | 289 | 0.0 | 0.0 | 0.00 | 1.30 | 0.28 | 81 | 1012.5 |
| 20260904144502 | 12 | 283 | 0.0 | 0.0 | 0.00 | 1.30 | 0.28 | 81 | 1012.2 |
| 20260904143009 | 12 | 282 | 0.0 | 0.0 | 0.00 | 1.30 | 0.28 | 81 | 1012.2 |
| 20260904141507 | 12 | 282 | 0.0 | 0.0 | 0.00 | 1.32 | 0.28 | 81 | 1011.8 |
| 20260904140011 | 11 | 122 | 0.0 | 0.0 | 0.00 | 1.32 | 0.28 | 81 | 1011.7 |
| 20260904134510 | 12 | 122 | 0.0 | 0.0 | 0.00 | 1.40 | 0.28 | 80 | 1011.4 |
| 20260904133015 | 12 | 123 | 0.0 | 0.0 | 0.00 | 1.45 | 0.28 | 81 | 1011.2 |
| 20260904131510 | 11 | 122 | 0.0 | 0.0 | 0.00 | 1.47 | 0.28 | 80 | 1011.1 |
| 20260904130012 | 11 | 123 | 0.0 | 0.0 | 0.00 | 1.52 | 0.28 | 80 | 1011.1 |
| 20260904124513 | 12 | 122 | 0.0 | 0.0 | 0.00 | 1.52 | 0.28 | 80 | 1010.9 |